GFSFLT2_700_temp_336.txt.gz
Temp
6 6 6 6 6 6 6 6 6 5 5 5 4 4 4 4 4 4 4 4 4 4 4 4 3 3 2 2 2 1 1 1
6 6 6 6 6 6 6 5 5 5 4 4 4 4 4 4 4 3 4 3 3 3 3 2 2 2 1 1 0 -0 -0 -0
6 6 6 6 7 6 5 4 4 4 3 3 3 3 3 3 3 3 3 3 2 2 2 1 1 0 0 -0 -1 -1 -1 -2
6 6 6 6 6 5 4 3 3 3 3 2 3 3 3 3 2 2 2 2 2 1 1 0 -0 -1 -1 -2 -2 -2 -2 -3
6 6 6 5 5 4 3 3 3 2 2 2 2 2 2 2 2 1 1 1 0 -0 -1 -1 -2 -2 -2 -3 -3 -3 -3 -3
6 5 5 4 4 3 3 3 2 2 2 2 2 2 1 1 1 1 0 -0 -1 -1 -2 -2 -3 -3 -3 -4 -4 -4 -4 -4
5 5 4 4 3 3 2 2 2 2 1 1 1 1 1 1 0 -0 -0 -1 -2 -2 -3 -3 -4 -4 -4 -4 -4 -4 -5 -5
5 4 4 3 3 2 2 2 1 1 1 1 1 0 0 0 -0 -1 -2 -2 -3 -4 -4 -4 -5 -5 -5 -5 -5 -6 -6 -6
5 4 4 3 2 2 2 1 1 1 0 0 -0 -0 -0 -0 -1 -2 -3 -3 -4 -4 -5 -6 -6 -7 -6 -6 -7 -7 -7 -7
4 4 3 3 2 2 1 1 1 0 -0 -0 -1 -1 -1 -2 -3 -3 -4 -4 -5 -5 -6 -6 -7 -7 -8 -8 -8 -8 -8 -8
4 3 2 2 1 1 1 0 -0 -1 -0 -1 -1 -2 -2 -3 -4 -4 -5 -5 -6 -6 -7 -7 -7 -8 -9 -9 -9 -9 -9 -9
3 3 2 1 0 0 -0 -1 -1 -1 -1 -1 -1 -2 -3 -4 -5 -5 -6 -6 -6 -7 -7 -8 -8 -9 -10 -9 -10 -10 -10 -10
3 2 2 0 -0 -1 -1 -2 -2 -1 -2 -2 -2 -3 -4 -5 -6 -6 -7 -7 -7 -8 -8 -8 -8 -9 -10 -10 -11 -10 -11 -10
2 2 2 0 -1 -1 -2 -2 -2 -2 -2 -3 -3 -4 -4 -5 -6 -7 -7 -7 -8 -9 -9 -9 -10 -10 -10 -10 -10 -11 -11 -11
2 2 1 -0 -1 -2 -2 -2 -2 -3 -3 -4 -4 -5 -6 -6 -7 -7 -8 -8 -9 -9 -10 -10 -11 -12 -11 -11 -10 -10 -11 -12
2 2 1 -1 -2 -2 -3 -3 -3 -3 -4 -4 -6 -7 -7 -7 -8 -8 -8 -9 -10 -10 -11 -12 -12 -12 -12 -12 -12 -12 -11 -10
2 1 -0 -1 -2 -3 -3 -3 -3 -3 -4 -5 -6 -7 -7 -8 -8 -9 -9 -10 -10 -11 -12 -12 -12 -12 -12 -12 -13 -13 -13 -13
2 1 -0 -2 -3 -3 -3 -3 -3 -4 -5 -6 -7 -8 -8 -8 -9 -9 -10 -10 -11 -12 -12 -12 -12 -12 -13 -13 -13 -14 -14 -14
1 -0 -1 -2 -3 -3 -3 -3 -4 -5 -6 -7 -7 -8 -8 -8 -9 -10 -10 -11 -12 -12 -12 -12 -13 -13 -14 -14 -14 -15 -15 -15
0 -1 -2 -3 -3 -3 -3 -4 -5 -6 -7 -7 -8 -8 -8 -9 -10 -10 -11 -12 -12 -12 -13 -13 -14 -14 -14 -14 -15 -15 -15 -15

GFSFLT2_700_temp_342.txt.gz
Temp
6 6 5 5 5 5 5 5 5 5 5 4 4 3 3 3 3 3 3 3 3 3 3 3 3 3 3 2 2 2 1 1
6 6 5 4 5 5 5 5 5 5 5 4 3 3 3 3 2 2 2 3 2 2 2 2 2 2 2 2 1 1 1 1
6 5 5 4 5 5 5 5 5 5 4 3 3 2 2 2 2 2 2 2 2 2 1 1 1 1 1 1 0 0 0 -0
6 5 5 5 5 5 4 4 4 3 3 2 2 2 2 1 2 2 2 1 1 1 1 0 0 -0 -1 -1 -1 -1 -2 -2
6 5 5 5 4 4 4 3 3 2 2 1 1 1 1 1 1 1 1 0 0 -0 -1 -1 -1 -1 -2 -2 -2 -3 -3 -3
6 5 5 5 4 4 3 2 2 1 1 1 0 0 1 1 1 0 -0 -1 -1 -1 -2 -2 -2 -2 -3 -4 -4 -4 -4 -4
5 4 4 4 3 2 2 1 1 0 0 -0 -0 0 0 0 -0 -1 -1 -2 -2 -3 -3 -3 -4 -4 -4 -5 -5 -5 -5 -5
5 4 4 3 2 2 1 1 0 -0 -1 -1 -0 -0 -0 -1 -1 -2 -2 -3 -3 -4 -4 -4 -5 -5 -6 -6 -6 -6 -6 -6
4 4 3 3 2 1 1 1 -0 -1 -1 -1 -1 -1 -1 -1 -2 -3 -3 -4 -4 -5 -5 -6 -6 -6 -7 -7 -7 -7 -7 -7
4 3 2 2 1 1 1 0 -1 -1 -1 -2 -2 -1 -2 -3 -3 -3 -4 -5 -5 -5 -6 -6 -7 -7 -7 -8 -8 -8 -9 -9
4 3 2 1 1 1 0 -0 -1 -2 -2 -2 -2 -2 -3 -3 -4 -4 -5 -6 -6 -6 -7 -7 -7 -8 -8 -8 -9 -9 -10 -10
4 2 1 0 0 0 -0 -0 -1 -2 -3 -3 -3 -3 -3 -4 -5 -6 -6 -6 -7 -7 -7 -8 -8 -8 -10 -10 -10 -11 -11 -11
3 2 1 0 0 0 -0 -1 -2 -3 -3 -3 -3 -3 -4 -5 -6 -6 -7 -7 -7 -7 -8 -8 -9 -9 -10 -11 -11 -11 -11 -11
3 1 0 -0 -0 -0 -1 -2 -3 -3 -3 -3 -3 -4 -5 -6 -6 -7 -7 -7 -8 -8 -9 -9 -10 -10 -10 -10 -10 -11 -12 -12
2 0 -0 -1 -1 -1 -2 -3 -4 -4 -4 -4 -5 -5 -6 -7 -7 -7 -8 -8 -9 -9 -10 -10 -10 -11 -11 -11 -11 -11 -11 -13
1 -0 -1 -1 -1 -2 -3 -4 -4 -4 -4 -4 -5 -6 -7 -7 -8 -8 -8 -9 -9 -10 -10 -11 -11 -11 -12 -12 -13 -13 -13 -12
0 -1 -1 -2 -2 -3 -4 -4 -5 -5 -5 -5 -6 -7 -7 -8 -8 -8 -9 -9 -10 -10 -11 -11 -11 -12 -12 -13 -13 -13 -14 -14
-1 -1 -1 -2 -3 -4 -4 -4 -5 -5 -6 -6 -7 -8 -8 -8 -8 -8 -9 -10 -10 -11 -11 -11 -12 -13 -13 -13 -14 -14 -14 -14
-1 -1 -2 -2 -3 -4 -4 -5 -5 -6 -6 -7 -7 -8 -8 -8 -9 -9 -9 -10 -11 -11 -11 -12 -13 -13 -13 -14 -14 -14 -15 -15
-1 -2 -2 -3 -4 -4 -5 -5 -6 -6 -7 -7 -8 -8 -8 -8 -9 -9 -10 -11 -11 -11 -12 -13 -13 -13 -14 -14 -14 -15 -15 -15

GFSFLT2_700_temp_345.txt.gz
Temp
6 6 5 5 5 5 4 4 4 4 4 4 4 3 3 3 2 2 2 2 3 3 3 3 2 2 2 2 2 2 1 1
6 5 5 5 4 4 4 4 4 4 4 3 3 3 2 2 2 2 2 2 2 2 2 2 1 1 1 1 1 1 1 1
6 5 5 5 4 4 4 4 4 4 3 3 2 2 1 1 1 1 1 2 1 1 1 1 0 0 -0 -0 -0 -0 -0 -0
6 5 5 5 4 4 4 3 3 3 3 2 1 1 1 1 1 1 1 1 0 0 -0 -0 -0 -1 -1 -1 -1 -1 -2 -2
6 5 5 4 3 3 3 3 3 2 2 1 1 0 0 0 0 0 0 0 -0 -1 -1 -1 -1 -2 -2 -2 -3 -3 -3 -4
6 5 4 3 3 3 3 2 2 2 2 1 0 -0 -0 -0 -0 -0 -0 -1 -1 -2 -2 -3 -3 -3 -4 -4 -4 -4 -5 -5
5 4 3 3 3 3 2 2 2 2 1 0 -1 -1 -1 -1 -1 -1 -1 -2 -2 -3 -3 -4 -4 -4 -5 -5 -5 -5 -5 -5
5 4 3 3 3 2 2 1 1 1 0 -1 -1 -1 -1 -1 -1 -2 -2 -3 -3 -4 -5 -5 -5 -5 -6 -6 -6 -6 -6 -6
4 4 3 3 2 1 1 1 1 0 -1 -2 -2 -2 -2 -2 -2 -3 -3 -4 -5 -5 -6 -6 -6 -6 -6 -6 -7 -7 -7 -8
4 4 3 3 2 1 1 0 -0 -0 -1 -2 -2 -2 -2 -3 -3 -4 -4 -5 -5 -6 -6 -6 -7 -7 -7 -7 -7 -8 -8 -9
4 3 3 2 1 1 -0 -0 -0 -1 -2 -3 -2 -3 -3 -3 -4 -4 -5 -6 -6 -6 -6 -7 -7 -7 -8 -8 -9 -9 -9 -9
3 3 2 1 0 -0 -1 -0 -1 -2 -3 -3 -3 -3 -4 -4 -5 -5 -6 -6 -7 -7 -7 -7 -8 -9 -10 -10 -10 -10 -10 -10
3 2 1 0 0 -1 -0 -1 -2 -3 -3 -3 -3 -4 -4 -5 -6 -6 -7 -7 -7 -7 -8 -9 -9 -9 -9 -10 -10 -11 -11 -11
2 1 0 -0 -0 -1 -1 -2 -3 -3 -4 -4 -4 -5 -5 -6 -6 -7 -7 -7 -8 -8 -9 -10 -10 -10 -10 -10 -10 -11 -11 -12
1 0 -1 -1 -1 -1 -2 -3 -4 -4 -4 -4 -5 -6 -6 -7 -7 -7 -8 -8 -8 -9 -10 -10 -10 -10 -11 -11 -12 -12 -12 -12
-0 -1 -1 -1 -1 -2 -3 -4 -5 -5 -5 -5 -6 -6 -7 -7 -8 -8 -8 -8 -9 -10 -10 -10 -10 -11 -12 -12 -12 -13 -13 -12
-1 -2 -2 -2 -2 -3 -4 -5 -5 -6 -5 -6 -7 -7 -7 -8 -8 -8 -8 -9 -10 -10 -10 -10 -11 -11 -12 -12 -13 -13 -14 -14
-2 -2 -2 -2 -3 -4 -4 -5 -6 -6 -6 -7 -7 -8 -8 -8 -8 -9 -9 -10 -10 -10 -11 -11 -12 -12 -13 -13 -13 -14 -14 -14
-2 -2 -2 -3 -4 -4 -5 -6 -7 -6 -7 -8 -8 -8 -8 -8 -9 -9 -10 -10 -10 -11 -11 -12 -12 -13 -13 -13 -14 -14 -14 -14
-2 -2 -2 -4 -4 -5 -6 -7 -7 -7 -8 -8 -8 -8 -8 -9 -9 -10 -10 -10 -11 -11 -12 -12 -13 -13 -14 -14 -14 -14 -14 -15

GFSFLT2_700_temp_348.txt.gz
Temp
6 6 5 5 5 4 4 4 4 4 4 4 4 3 3 3 3 3 2 2 2 2 2 2 2 2 2 1 1 1 1 1
6 6 5 5 4 4 4 4 3 3 3 3 3 3 3 3 3 2 2 2 2 2 2 1 1 1 1 0 0 0 -0 -0
6 6 5 5 4 4 4 3 3 3 3 3 3 3 3 3 2 2 2 1 1 1 1 1 0 -0 -0 -1 -1 -1 -1 -1
6 6 5 4 4 4 3 3 3 3 3 3 3 2 2 2 1 1 1 1 1 0 0 -0 -1 -1 -1 -2 -2 -2 -2 -3
6 5 5 4 4 3 3 3 3 3 3 2 2 2 1 1 1 0 0 -0 -0 -1 -1 -1 -2 -2 -3 -3 -3 -4 -4 -4
6 5 4 4 3 3 3 3 2 2 2 2 1 1 1 0 -0 -0 -1 -1 -1 -2 -2 -2 -3 -3 -4 -4 -4 -4 -4 -5
6 5 4 3 3 3 2 2 2 2 1 1 0 -0 -1 -1 -1 -1 -2 -2 -2 -3 -3 -4 -4 -4 -5 -5 -5 -5 -5 -6
5 4 3 3 2 2 2 1 1 1 1 0 -1 -1 -2 -2 -2 -2 -2 -3 -4 -4 -5 -5 -5 -5 -6 -6 -6 -6 -6 -6
4 4 3 2 2 2 1 1 1 0 -0 -1 -2 -2 -2 -2 -2 -3 -3 -4 -4 -5 -5 -6 -6 -6 -6 -6 -6 -7 -7 -7
4 3 2 2 1 1 1 0 -0 -0 -1 -2 -2 -3 -3 -3 -3 -4 -4 -5 -5 -6 -6 -6 -7 -7 -7 -7 -7 -8 -8 -8
3 2 2 1 1 -0 -1 -1 -1 -1 -2 -3 -3 -3 -3 -3 -4 -5 -5 -6 -6 -6 -7 -7 -7 -7 -8 -8 -8 -9 -9 -9
3 2 1 1 -0 -0 -2 -1 -1 -2 -3 -3 -4 -4 -4 -4 -5 -6 -6 -6 -7 -7 -7 -7 -8 -8 -9 -9 -9 -9 -10 -10
2 1 0 -0 -1 -1 -2 -1 -2 -3 -3 -4 -4 -4 -4 -5 -6 -6 -7 -7 -7 -7 -8 -8 -9 -9 -9 -9 -10 -10 -10 -11
1 0 -0 -1 -2 -2 -2 -2 -2 -4 -5 -5 -5 -5 -5 -6 -7 -7 -7 -7 -8 -8 -9 -9 -9 -10 -9 -10 -11 -12 -14 -12
1 -0 -1 -2 -2 -2 -2 -2 -4 -5 -6 -6 -5 -6 -6 -7 -7 -7 -8 -8 -8 -9 -9 -9 -9 -10 -10 -11 -11 -13 -12 -12
-0 -1 -2 -2 -2 -2 -3 -5 -5 -6 -6 -6 -6 -6 -7 -7 -8 -8 -8 -8 -9 -9 -10 -10 -10 -11 -11 -12 -12 -12 -13 -12
-1 -2 -2 -2 -2 -3 -5 -5 -6 -6 -6 -7 -7 -7 -8 -8 -8 -8 -9 -9 -9 -10 -10 -10 -11 -11 -12 -12 -13 -13 -13 -13
-2 -2 -2 -3 -3 -4 -5 -6 -5 -6 -7 -7 -7 -8 -8 -8 -8 -9 -9 -9 -10 -10 -10 -11 -11 -12 -12 -13 -13 -13 -13 -14
-1 -2 -2 -3 -3 -4 -5 -5 -6 -7 -7 -8 -8 -8 -9 -9 -9 -9 -9 -10 -10 -10 -11 -11 -12 -12 -13 -13 -13 -14 -14 -14
-2 -2 -3 -3 -4 -5 -6 -6 -7 -7 -8 -8 -8 -9 -9 -9 -9 -10 -10 -10 -10 -11 -11 -12 -12 -13 -13 -14 -14 -14 -15 -15